Stations météo

Publicité
Saarbrücken-Ensheim, Allemagne (10708): Température de l'air & dewpoint: 11.11.2018 20:00:00 - 17.11.2018 20:00:00 (CET)Saarbrücken-Ensheim, Allemagne (10708): Température de l'air 5cm & Température de l'air -5cm: 11.11.2018 20:00:00 - 17.11.2018 20:00:00 (CET)Saarbrücken-Ensheim, Allemagne (10708): Température de l'air -20cm & Température de l'air -100cm: 11.11.2018 20:00:00 - 17.11.2018 20:00:00 (CET)Saarbrücken-Ensheim, Allemagne (10708): Vitesse du vent & gusts: 11.11.2018 20:00:00 - 17.11.2018 20:00:00 (CET)Saarbrücken-Ensheim, Allemagne (10708): Direction du vent: 11.11.2018 20:00:00 - 17.11.2018 20:00:00 (CET)Saarbrücken-Ensheim, Allemagne (10708): reduced air pressure: 11.11.2018 20:00:00 - 17.11.2018 20:00:00 (CET)Saarbrücken-Ensheim, Allemagne (10708): visibility: 11.11.2018 20:00:00 - 17.11.2018 20:00:00 (CET)Saarbrücken-Ensheim, Allemagne (10708): Ensoleillement: 11.11.2018 20:00:00 - 17.11.2018 20:00:00 (CET)Saarbrücken-Ensheim, Allemagne (10708): Quantités de précipitations: 11.11.2018 20:00:00 - 17.11.2018 20:00:00 (CET)
Date & Time tt [°C] td [°C] tt 5cm [°C] tt -5cm [°C] tt -20cm [°C] tt -100cm [°C] ff [km/h] ff [knt] fx [km/h] fx [knt] dd ppp [hPa] vv [km] sd [min] rr [mm]
17.11.2018 20:00:00 5,0 -3,0 - - - - 28 15 - - ENE - 10 - -
17.11.2018 19:00:00 5,8 -2,3 4,2 3,8 6,3 11,6 26 14 41 22 ENE 1026,8 10 0 0,0
17.11.2018 18:00:00 5,9 -1,0 4,3 4,3 6,5 11,6 22 12 41 22 ENE 1026,7 10 0 0,0
17.11.2018 17:00:00 6,5 -0,5 5,0 5,0 6,5 11,7 22 12 38 21 ENE 1026,3 10 46 0,0
17.11.2018 16:00:00 7,8 -0,5 6,7 5,7 6,4 11,7 22 12 50 27 ENE 1026,1 10 60 0,0
17.11.2018 15:00:00 8,5 -1,1 7,9 6,4 6,2 11,7 28 15 49 27 ENE 1026,1 10 60 0,0
17.11.2018 14:00:00 8,5 -1,0 8,6 6,3 6,0 11,7 32 17 47 25 ENE 1026,0 30 60 0,0
17.11.2018 13:00:00 8,0 -0,1 7,5 6,0 5,7 11,7 26 14 42 23 ENE 1026,1 10 60 0,0
17.11.2018 12:00:00 6,4 0,2 7,6 5,4 5,4 11,7 24 13 46 25 ENE 1026,9 10 60 0,0
17.11.2018 11:00:00 4,9 0,3 5,8 4,1 5,3 11,7 23 12 35 19 ENE 1027,6 15 60 0,0
17.11.2018 10:00:00 3,0 -0,2 3,1 2,0 5,3 11,7 16 9 34 18 NE 1028,1 15 60 0,0
17.11.2018 09:00:00 1,7 -0,7 0,7 1,9 5,4 11,7 22 12 36 20 ENE 1028,2 10 45 0,0
17.11.2018 08:00:00 0,7 -0,9 -0,4 1,9 5,5 11,7 21 11 30 16 ENE 1027,8 10 0 0,0
17.11.2018 07:00:00 0,9 -0,8 0,0 1,9 5,6 11,8 16 9 26 14 NNE 1027,5 10 0 0,0
17.11.2018 06:00:00 0,8 -0,8 -0,3 1,9 5,8 11,8 19 11 31 17 NE 1027,5 15 0 0,0
17.11.2018 05:00:00 1,3 -0,7 0,1 2,0 5,9 11,8 18 10 29 16 ENE 1027,4 10 0 0,0
17.11.2018 04:00:00 1,5 -0,5 0,4 2,2 6,1 11,8 16 8 28 15 NE 1027,7 18 0 0,0
17.11.2018 03:00:00 1,5 -0,5 0,1 2,4 6,3 11,8 13 7 26 14 NE 1027,9 10 0 0,0
17.11.2018 02:00:00 2,1 -0,1 0,9 2,6 6,5 11,8 17 9 25 13 NE 1027,8 15 0 0,0
17.11.2018 01:00:00 2,4 0,2 1,1 2,9 6,7 11,8 16 9 24 13 NE 1028,0 10 0 0,0
17.11.2018 00:00:00 2,1 0,0 0,7 3,2 6,9 11,8 13 7 23 13 NE 1028,1 10 0 0,0
16.11.2018 23:00:00 3,0 0,5 1,7 3,5 7,1 11,8 16 9 25 13 NNE 1028,3 10 0 0,0
16.11.2018 22:00:00 2,9 0,6 1,5 4,0 7,3 11,8 16 9 29 16 NE 1028,4 10 0 0,0
16.11.2018 21:00:00 4,4 1,2 3,2 4,4 7,5 11,9 21 11 31 17 ENE 1028,1 10 0 0,0
16.11.2018 20:00:00 4,6 1,6 3,2 4,8 7,7 11,9 18 10 31 17 ENE 1027,7 15 0 0,0
16.11.2018 19:00:00 5,2 1,9 4,0 5,2 7,9 11,9 20 11 29 16 ENE 1027,8 15 0 0,0
16.11.2018 18:00:00 5,6 1,7 4,1 5,8 8,1 11,9 20 11 34 18 ENE 1027,5 15 0 0,0
16.11.2018 17:00:00 7,1 0,5 5,3 6,8 8,3 11,9 21 11 31 17 ENE 1027,2 10 46 0,0
16.11.2018 16:00:00 9,0 1,7 7,6 7,9 8,2 11,9 15 8 25 13 ENE 1026,7 10 60 0,0
16.11.2018 15:00:00 9,5 3,3 9,3 8,8 8,0 11,9 16 9 26 14 NE 1026,7 10 60 0,0
16.11.2018 14:00:00 9,5 2,5 10,0 8,6 7,8 11,9 15 8 28 15 E 1026,9 10 60 0,0
16.11.2018 13:00:00 8,7 3,7 8,6 8,2 7,6 11,9 18 10 27 14 ENE 1027,2 9 60 0,0
16.11.2018 12:00:00 7,5 3,9 8,3 7,3 7,4 11,9 13 7 26 14 ENE 1028,0 8 43 0,0
16.11.2018 11:00:00 5,6 3,1 5,7 6,3 7,4 11,9 16 9 31 17 E 1028,4 8 5 0,0
16.11.2018 10:00:00 4,9 3,3 5,0 5,8 7,3 12,0 16 9 26 14 ENE 1028,8 8 0 0,0
16.11.2018 09:00:00 4,3 3,0 4,1 5,4 7,4 12,0 13 7 21 11 ENE 1028,6 8 0 0,0
16.11.2018 08:00:00 4,0 2,3 3,6 5,4 7,4 12,0 13 7 23 13 ENE 1028,3 8 0 0,0
16.11.2018 07:00:00 3,8 2,7 3,7 5,5 7,5 12,0 12 6 22 12 ENE 1028,0 12 0 0,0
16.11.2018 06:00:00 3,9 3,3 3,9 5,5 7,5 12,0 15 8 27 14 E 1027,9 4,0 0 0,0
16.11.2018 05:00:00 4,0 3,7 4,0 5,5 7,5 12,0 14 8 23 13 E 1027,7 2,0 0 0,0
16.11.2018 04:00:00 3,9 3,5 3,9 5,6 7,6 12,0 15 8 27 15 E 1027,7 1,0 0 0,0
16.11.2018 03:00:00 3,9 3,8 3,9 5,6 7,6 12,0 15 8 25 14 E 1027,7 0,9 0 0,0
16.11.2018 02:00:00 3,9 3,8 4,0 5,6 7,7 12,0 17 9 28 15 E 1027,8 0,6 0 0,0
16.11.2018 01:00:00 3,9 3,8 4,0 5,7 7,7 12,0 16 9 27 15 E 1028,1 0,3 0 0,0
16.11.2018 00:00:00 4,0 4,0 4,1 5,7 7,8 12,0 15 8 25 13 E 1027,7 0,3 0 0,0
15.11.2018 23:00:00 3,8 3,8 3,9 5,7 7,8 12,1 11 6 25 14 E 1027,6 0,3 0 0,0
15.11.2018 22:00:00 3,7 3,6 3,8 5,8 7,9 12,1 15 8 25 14 E 1027,8 0,3 0 0,0
15.11.2018 21:00:00 3,6 3,5 3,7 5,9 8,0 12,1 16 9 26 14 E 1027,6 0,4 0 0,0
15.11.2018 20:00:00 3,8 3,7 3,9 6,1 8,1 12,1 15 8 25 13 E 1027,5 0,6 0 0,0
15.11.2018 19:00:00 4,0 4,0 4,1 6,2 8,1 12,1 16 9 27 15 E 1027,2 0,6 0 0,0
15.11.2018 18:00:00 4,3 4,3 4,5 6,4 8,2 12,1 15 8 26 14 ENE 1026,9 0,7 0 0,0
15.11.2018 17:00:00 4,4 4,3 4,5 6,7 8,3 12,1 13 7 28 15 E 1027,0 0,7 0 0,0
15.11.2018 16:00:00 4,7 4,6 4,9 7,0 8,3 12,1 16 9 25 14 E 1027,2 0,5 0 0,0
15.11.2018 15:00:00 4,7 4,6 5,0 7,1 8,2 12,1 16 9 24 13 E 1027,1 0,5 0 0,0
15.11.2018 14:00:00 4,8 4,7 5,2 7,2 8,2 12,1 13 7 22 12 E 1027,3 0,7 0 0,0
15.11.2018 13:00:00 4,6 4,4 5,2 7,1 8,1 12,1 15 8 24 13 E 1027,5 0,7 0 0,0
15.11.2018 12:00:00 4,6 4,5 5,2 7,0 8,1 12,1 15 8 21 11 ESE 1027,8 0,8 0 0,0
15.11.2018 11:00:00 4,4 4,4 4,9 6,6 8,1 12,1 11 6 21 11 E 1028,1 0,4 0 0,0
15.11.2018 10:00:00 4,3 4,3 4,6 6,4 8,1 12,2 11 6 24 13 E 1028,0 0,5 0 0,0
15.11.2018 09:00:00 4,3 4,3 4,5 6,2 8,1 12,2 13 7 22 12 E 1027,9 0,1 0 0,0
15.11.2018 08:00:00 4,3 4,3 4,4 6,2 8,2 12,2 13 7 22 12 E 1027,6 0,1 0 0,0
15.11.2018 07:00:00 4,4 4,4 4,5 6,3 8,2 12,2 13 7 20 11 E 1027,5 0,2 0 0,0
15.11.2018 06:00:00 4,4 4,4 4,5 6,4 8,2 12,2 15 8 22 12 E 1027,4 0,3 0 0,0
15.11.2018 05:00:00 4,8 4,7 4,9 6,5 8,3 12,2 13 7 18 10 E 1027,7 0,3 0 0,0
15.11.2018 04:00:00 5,0 5,0 5,0 6,4 8,3 12,2 9 5 19 10 E 1027,7 0,4 0 0,0
15.11.2018 03:00:00 4,8 4,7 4,9 6,3 8,4 12,2 11 6 22 12 E 1027,9 0,4 0 0,0
15.11.2018 02:00:00 4,6 4,6 4,7 6,3 8,4 12,2 11 6 23 12 E 1028,0 0,3 0 0,0
15.11.2018 01:00:00 4,3 4,3 4,4 6,4 8,5 12,2 13 7 21 11 ENE 1027,9 0,3 0 0,0
15.11.2018 00:00:00 4,3 4,2 4,5 6,5 8,5 12,2 15 8 25 13 E 1027,9 0,2 0 0,0
14.11.2018 23:00:00 5,1 5,0 5,2 6,5 8,6 12,2 13 7 18 10 E 1027,8 0,2 0 0,0
14.11.2018 22:00:00 5,0 4,9 5,0 6,3 8,7 12,2 11 6 16 8 ENE 1028,1 0,2 0 0,0
14.11.2018 21:00:00 4,8 4,7 4,7 6,3 8,9 12,2 8 4 16 9 ENE 1028,2 0,3 0 0,0
14.11.2018 20:00:00 4,7 4,7 3,9 6,5 9,1 12,2 10 5 16 9 ENE 1028,5 1,2 0 0,0
14.11.2018 19:00:00 5,6 5,1 4,5 6,8 9,4 12,2 11 6 15 8 ENE 1028,3 10 0 0,0
14.11.2018 18:00:00 6,5 5,8 4,4 7,7 9,6 12,2 6 3 11 6 E 1028,3 50 0 0,0
14.11.2018 17:00:00 8,3 5,8 5,9 9,0 9,6 12,2 7 4 11 6 ENE 1027,9 50 47 0,0
14.11.2018 16:00:00 11,7 5,6 9,9 10,2 9,5 12,2 8 4 15 8 E 1027,5 10 60 0,0
14.11.2018 15:00:00 12,3 5,9 12,2 11,4 9,2 12,2 10 5 18 10 ESE 1027,5 50 60 0,0
14.11.2018 14:00:00 12,1 6,4 13,1 11,0 8,8 12,2 13 7 20 11 SE 1027,5 10 60 0,0
14.11.2018 13:00:00 10,6 6,7 10,0 10,3 8,4 12,2 12 6 21 11 E 1028,3 45 60 0,0
14.11.2018 12:00:00 9,7 6,6 10,8 9,5 7,9 12,2 11 6 21 11 E 1028,8 30 60 0,0
14.11.2018 11:00:00 7,5 5,6 8,3 7,6 7,6 12,2 16 8 22 12 E 1029,6 15 60 0,0
14.11.2018 10:00:00 6,3 5,2 6,7 5,1 7,6 12,2 13 7 19 10 E 1029,7 4,0 60 0,0
14.11.2018 09:00:00 4,1 3,8 3,3 3,9 7,7 12,2 11 6 16 9 E 1030,3 10 53 0,0
14.11.2018 08:00:00 2,4 2,1 0,9 3,9 7,9 12,2 7 4 15 8 ENE 1031,2 2,8 0 0,0
14.11.2018 07:00:00 3,2 3,0 1,9 4,0 8,1 12,2 9 5 15 8 E 1031,1 10 0 0,0
14.11.2018 06:00:00 3,0 2,7 0,9 4,1 8,3 12,2 8 4 9 5 ENE 1031,2 9 0 0,0
14.11.2018 05:00:00 3,0 2,6 0,1 4,3 8,4 12,2 5 3 9 5 ENE 1031,6 3,0 0 0,0
14.11.2018 04:00:00 3,3 3,1 1,0 4,5 8,7 12,2 5 3 8 4 ENE 1031,9 9 0 0,0
14.11.2018 03:00:00 2,9 2,7 0,9 4,6 8,9 12,2 5 3 13 7 E 1032,5 1,6 0 0,0
14.11.2018 02:00:00 3,2 2,6 0,4 4,9 9,2 12,2 0 0 4 2 N 1032,2 4,0 0 0,0
14.11.2018 01:00:00 4,0 3,7 0,5 5,3 9,5 12,2 2 1 4 2 NNE 1032,3 20 0 0,0
14.11.2018 00:00:00 4,9 4,5 2,0 5,7 9,7 12,2 4 2 9 5 - 1032,3 10 0 0,0
13.11.2018 23:00:00 4,0 3,2 2,1 6,2 10,0 12,2 4 2 9 5 E 1032,4 20 0 0,0
13.11.2018 22:00:00 5,4 4,8 1,6 6,7 10,3 12,2 5 3 9 5 W 1032,2 10 0 0,0
13.11.2018 21:00:00 6,3 5,7 1,7 7,3 10,7 12,2 5 3 11 6 W 1031,8 10 0 0,0
13.11.2018 20:00:00 6,9 5,8 2,9 7,9 10,9 12,2 5 3 9 5 WSW 1031,7 10 0 0,0
13.11.2018 19:00:00 8,3 6,2 5,0 8,7 11,2 12,2 9 5 16 9 SW 1031,1 10 0 0,0
13.11.2018 18:00:00 8,8 6,4 6,1 9,6 11,4 12,2 13 7 16 9 SW 1030,5 10 0 0,0
13.11.2018 17:00:00 10,0 6,8 8,1 10,7 11,5 12,2 13 7 26 14 SW 1029,7 10 18 0,0
13.11.2018 16:00:00 11,1 6,7 9,6 11,6 11,5 12,2 16 9 29 16 WSW 1029,2 50 48 0,0
13.11.2018 15:00:00 11,6 6,8 10,9 11,9 11,5 12,2 20 11 37 20 W 1028,6 50 31 0,0
13.11.2018 14:00:00 10,6 6,6 9,9 12,3 11,4 12,2 29 16 41 22 W 1028,6 35 16 0,0
13.11.2018 13:00:00 10,9 8,4 10,5 12,2 11,2 12,2 20 11 31 17 WSW 1028,0 30 8 0,0
13.11.2018 12:00:00 10,8 9,4 11,5 11,1 11,1 12,2 16 9 29 16 SW 1027,9 10 5 0,0
13.11.2018 11:00:00 9,6 8,2 9,6 10,5 11,1 12,2 21 11 34 18 SW 1027,9 10 1 0,2
13.11.2018 10:00:00 9,5 8,4 9,2 10,2 11,2 12,2 21 11 37 20 WSW 1027,3 5 0 1,0
13.11.2018 09:00:00 9,4 8,4 9,0 10,1 11,2 12,2 13 7 22 12 SW 1026,1 10 0 0,2
13.11.2018 08:00:00 9,5 8,5 9,0 10,2 11,3 12,2 13 7 26 14 SSW 1024,7 10 0 0,2
13.11.2018 07:00:00 9,6 8,8 9,1 10,4 11,4 12,2 15 8 25 14 S 1024,2 10 0 0,9
13.11.2018 06:00:00 10,0 9,1 9,4 10,6 11,5 12,2 13 7 31 17 SSW 1023,6 12 0 0,6
13.11.2018 05:00:00 10,4 9,7 9,9 10,8 11,6 12,2 13 7 23 13 SW 1023,1 15 0 0,7
13.11.2018 04:00:00 10,8 10,2 10,3 11,0 11,7 12,2 15 8 21 11 WSW 1022,6 10 0 1,4
13.11.2018 03:00:00 11,0 10,6 10,6 11,2 11,8 12,2 11 6 15 8 WSW 1022,6 10 0 0,9
13.11.2018 02:00:00 11,1 10,4 10,6 11,3 11,8 12,2 5 3 15 8 SW 1021,4 10 0 0,3
13.11.2018 01:00:00 11,3 10,9 10,6 11,5 11,9 12,2 4 2 9 5 - 1021,1 10 0 0,4
13.11.2018 00:00:00 11,5 11,2 11,1 11,8 12,0 12,2 9 5 22 12 WSW 1020,6 10 0 1,5
12.11.2018 23:00:00 12,0 11,7 11,8 12,1 12,0 12,2 18 10 24 13 W 1020,4 4,0 0 3,9
12.11.2018 22:00:00 12,6 12,0 12,0 12,1 12,0 12,2 5 3 14 8 SW 1019,3 10 0 0,8
12.11.2018 21:00:00 13,1 11,7 12,2 12,3 12,1 12,2 11 6 23 13 WSW 1019,3 10 0 0,1
12.11.2018 20:00:00 13,4 12,3 12,6 12,4 12,1 12,2 13 7 24 13 SW 1019,0 10 0 0,6
12.11.2018 19:00:00 13,5 12,6 12,9 12,6 12,1 12,2 9 5 13 7 SSW 1018,7 10 0 0,7
12.11.2018 18:00:00 13,6 12,9 12,8 12,8 12,1 12,2 4 2 18 10 SW 1018,1 10 0 1,8
12.11.2018 17:00:00 13,8 12,6 12,9 13,2 12,1 12,2 16 9 46 25 W 1017,3 6 0 2,2
12.11.2018 16:00:00 17,8 11,0 16,3 13,7 11,9 12,2 18 10 40 22 SSW 1015,0 10 30 0,0
12.11.2018 15:00:00 18,2 10,9 17,5 14,4 11,7 12,2 29 16 45 24 SSW 1014,9 10 28 0,0
12.11.2018 14:00:00 18,1 10,7 18,0 13,9 11,4 12,2 28 15 45 24 SW 1015,0 10 7 0,0
12.11.2018 13:00:00 17,7 10,3 17,8 12,9 11,1 12,2 24 13 37 20 SSW 1015,1 10 0 0,0
12.11.2018 12:00:00 16,6 9,2 16,4 12,1 11,0 12,2 22 12 36 20 SSW 1015,2 10 0 0,0
12.11.2018 11:00:00 15,9 8,0 15,2 11,4 10,9 12,2 22 12 37 20 SSW 1015,3 10 0 0,0
12.11.2018 10:00:00 15,2 7,9 14,5 11,0 10,8 12,2 9 5 16 8 SSW 1014,9 10 0 0,0
12.11.2018 09:00:00 14,2 8,4 13,2 10,6 10,8 12,1 5 3 13 7 SSE 1014,6 10 19 0,0
12.11.2018 08:00:00 12,6 8,6 11,1 10,3 10,8 12,1 4 2 9 5 SE 1014,4 50 1 0,0
12.11.2018 07:00:00 12,7 8,5 11,2 10,2 10,8 12,1 6 3 16 9 SE 1013,9 50 0 0,0
12.11.2018 06:00:00 15,0 9,3 12,8 10,6 10,8 12,1 13 7 31 17 S 1013,2 10 0 0,0
12.11.2018 05:00:00 15,3 9,5 14,1 10,5 10,7 12,1 19 11 31 17 SSW 1013,2 40 0 0,0
12.11.2018 04:00:00 14,6 9,3 13,5 10,2 10,8 12,1 11 6 16 9 S 1013,4 10 0 0,0
12.11.2018 03:00:00 13,8 9,3 11,5 10,1 10,8 12,1 9 5 16 9 S 1013,7 10 0 0,0
12.11.2018 02:00:00 14,1 9,4 13,0 10,2 10,8 12,1 9 5 20 11 S 1013,8 10 0 0,0
12.11.2018 01:00:00 13,9 9,4 11,8 10,0 10,9 12,1 15 8 26 14 S 1013,9 10 0 0,0
12.11.2018 00:00:00 13,1 9,9 11,0 10,4 10,9 12,1 13 7 16 9 SSE 1014,0 40 0 0,0
11.11.2018 23:00:00 13,5 10,2 11,8 10,5 10,9 12,1 9 5 24 13 SW 1014,1 10 0 0,0
11.11.2018 22:00:00 14,1 9,9 12,8 10,4 10,9 12,1 13 7 35 19 SSW 1013,4 10 0 0,0
11.11.2018 21:00:00 14,0 9,7 12,8 10,0 11,0 12,1 18 10 32 17 SSW 1012,5 10 0 0,0
11.11.2018 20:00:00 13,2 9,6 11,4 9,8 11,1 12,1 16 9 26 14 S 1012,3 10 0 0,0

tt = Température de l'air
td = dewpoint
tt 5cm = Température de l'air 5cm
tt -5cm = Température de l'air -5cm
tt -20cm = Température de l'air -20cm
tt -100cm = Température de l'air -100cm
ff = Vitesse du vent
fx = gusts
dd = Direction du vent
ppp = reduced air pressure
vv = visibility
sd = Ensoleillement
rr = Quantités de précipitations

stations d'obs. à proximité